Flag for Canada Weather past 2 weeks in Calgary, Alberta, Canada

Now
18 °F

Broken clouds.


Feels Like: -1 °F
Forecast: -1 / 17 °F
Wind: 28 mph from North

Location: Calgary International

Current Time: Mar 2, 2015 at 5:41:57 PM

Latest Report: Mar 2, 2015 at 5:00 PM


Visibility: 15 mi

Pressure: 30.28 "Hg

Humidity: 53%

Dew point: 3 °F

Location of CalgaryLocation

Historic Weather in Calgary — Graph

°F

Calgary temperature yesterday

Maximum temperature yesterday: 32 °F (at 2:00 PM)
Minimum temperature yesterday: 9 °F (at 6:00 AM)
Average temperature yesterday: 21 °F

Past Weeks' High & Low Weather Summary

 TemperatureHumidityPressure
High54 °F (Feb 23, 3:00 PM)93% (Feb 16, 9:00 PM)30.73 "Hg (Feb 16, 9:00 PM)
Low5 °F (Feb 26, 3:00 AM)24% (Feb 19, 3:00 PM)29.88 "Hg (Feb 19, 12:00 AM)
Average27 °F66%30.28 "Hg
* Reported Feb 15 4:00 PM — Mar 2 4:00 PM, Calgary, Weather by CustomWeather, © 2015

Note: Actual official high and low records may vary slightly from our data, if they occured in-between our weather recording intervals... More about our weather records

Advertising

Calgary weather history for previous 24 hours

 ConditionsComfort  
Time TempWeatherWind HumidityBarometerVisibility
4:00 PM
Mon, Mar 2
19 °FBroken clouds.26 mph49%30.27 "Hg15 mi
3:00 PM19 °FBroken clouds.31 mph53%30.25 "Hg6 mi
2:00 PM21 °FPartly sunny.30 mph58%30.22 "Hg15 mi
1:00 PM23 °FMore clouds than sun.31 mph54%30.19 "Hg15 mi
12:00 PM21 °FMore clouds than sun.23 mph68%30.20 "Hg15 mi
11:00 AM21 °FMore clouds than sun.24 mph63%30.20 "Hg15 mi
10:00 AM21 °FMore clouds than sun.25 mph68%30.19 "Hg4 mi
9:00 AM19 °FCloudy.33 mph73%30.16 "Hg3 mi
8:00 AM23 °FMostly cloudy.31 mph74%30.09 "Hg5 mi
7:04 AM27 °FLight snow. Ice fog.17 mph74%30.05 "Hg2 mi
6:00 AM27 °FLight snow. Ice fog.23 mph80%30.01 "Hg5 mi
5:00 AM28 °FLight snow. Ice fog.20 mph74%29.97 "Hg5 mi
4:00 AM27 °FLight snow. Ice fog.9 mph93%29.96 "Hg5 mi
3:00 AM28 °FLight snow. Ice fog.13 mph86%29.95 "Hg5 mi
2:00 AM28 °FLight snow. Ice fog.12 mph80%29.94 "Hg5 mi
1:00 AM32 °FPassing clouds.20 mph47%29.91 "Hg15 mi
12:00 AM34 °FPassing clouds.18 mph38%29.90 "Hg15 mi
11:00 PM
Sun, Mar 1
32 °FPassing clouds.21 mph40%29.90 "Hg15 mi
10:00 PM25 °FPassing clouds.3 mph63%29.93 "Hg15 mi
9:00 PM23 °FPassing clouds.3 mph74%29.95 "Hg15 mi
8:00 PM27 °FPassing clouds.3 mph69%29.96 "Hg15 mi
7:00 PM27 °FPassing clouds.3 mph69%29.99 "Hg15 mi
6:00 PM27 °FPartly sunny.8 mph69%30.01 "Hg30 mi
5:00 PM30 °FBroken clouds.13 mph55%30.02 "Hg40 mi
Weather by CustomWeather, © 2015

See weather overviewHow to use our weather pages